Location: Koslow
(50.3020°N, 18.5663°E)
Time: 20:08:53
(UTC+00:00)

X-37B - Pass Details

Date: 08 August 2021
Orbit: 381 x 393 km, 45.0° (Epoch: 29 August)

Event Time Altitude Azimuth Distance (km) Brightness Sun altitude
Exits shadow 01:37:26 28° 191° (S) 746 1.5 -14.2°
Maximum altitude 01:37:51 29° 174° (S) 724 1.6 -14.2°
Drops below altitude 10° 01:40:39 10° 111° (ESE) 1,397 3.7 -13.9°
Sets 01:42:51 0° 100° (E) 2,251 4.9 -13.7°
